GRARBER Weather Reports


Display with metric or nautical units.
time (UTC)temp
F
wind
direction
speed
MPH
gust
MPH
rain 1hr
in
rain 24hr
in
rain mn
in
humidity
%
barometer
mb
20260508011755 36 260 12.0 0.0 0.00 0.00 0.00 99
20260508001655 36 250 12.0 0.0 0.00 0.00 0.00 99
20260507231655 36 240 13.0 0.0 0.00 0.00 0.00 99
20260507221955 36 250 12.0 0.0 0.00 0.00 0.00 99
20260507211655 36 250 12.0 0.0 0.00 0.00 0.00 99
20260507201656 37 260 12.0 0.0 0.00 0.00 0.00 99
20260507191756 37 260 13.0 0.0 0.00 0.00 0.00 99
20260507181655 37 260 10.0 0.0 0.00 0.00 0.00 99
20260507171654 37 260 13.0 0.0 0.00 0.00 0.00 99
20260507161956 39 260 12.0 18.0 0.00 0.00 0.00 99
20260507151655 39 250 15.0 22.0 0.00 0.00 0.00 99
20260507141655 39 250 16.0 24.0 0.00 0.00 0.00 99
20260507131755 39 230 17.0 25.0 0.00 0.00 0.00 99
20260507121655 39 240 20.0 0.0 0.00 0.00 0.00 99
20260507111655 39 210 12.0 21.0 0.00 0.00 0.00 99
20260507101855 39 230 17.0 25.0 0.00 0.00 0.00 99
20260507091655 37 220 16.0 24.0 0.00 0.00 0.00 99
20260507081654 37 220 21.0 29.0 0.00 0.00 0.00 99
20260507071655 37 220 23.0 31.0 0.00 0.00 0.00 99
20260507061655 37 220 22.0 29.0 0.00 0.00 0.00 99
20260507051655 36 230 24.0 32.0 0.00 0.00 0.00 99
20260507041857 37 230 24.0 31.0 0.00 0.00 0.00 99
20260507031655 37 230 25.0 0.0 0.00 0.00 0.00 99
20260507021653 39 230 22.0 29.0 0.00 0.00 0.00 99